Copenhagen, Denmark

2:55 PM CEST on August 17, 2017 (GMT +0200)
Kastrup

Weather History for EKCH - July, 2013

Change the Weather History Date:

Monday, July 1, 2013

  Actual Average Record
Temperature  
Mean Temperature 56 °F -  
Max Temperature 64 °F 69 °F 75 °F (2006)
Min Temperature 49 °F 55 °F 48 °F (1996)
Degree Days  
Heating Degree Days 8    
Growing Degree Days 6 (Base 50)    
Moisture  
Dew Point 53 °F    
Average Humidity 85    
Maximum Humidity 100    
Minimum Humidity 63    
Precipitation  
Precipitation 0.01 in - - ()
Sea Level Pressure  
Sea Level Pressure 29.90 in    
Wind  
Wind Speed 7 mph ()    
Max Wind Speed 16 mph    
Max Gust Speed -    
Visibility 7.1 miles    
Events Fog , Rain    
Averages and records for this station are not official NWS values.
T = Trace of Precipitation, MM = Missing Value Source: Averaged Metar Reports

Daily Weather History Graph

Daily Weather History Graph

Search for Another Location

Airport or City:

Trip Planner

Search our weather history database for the weather conditions in past years. The results will help you decide how hot, cold, wet, or windy it might be!

Date:

Astronomy

Jul. 01, 2013 Rise Set
Actual Time 4:30 AM CEST 9:55 PM CEST
Civil Twilight 3:30 AM CEST 10:54 PM CEST
Nautical Twilight 1:45 AM CEST 12:40 AM CEST
Astronomical Twilight Sun does not set Sun does not set
Moon 12:40 AM CEST (7/1) 3:11 PM CEST (7/1)
Length of Visible Light 19h 24m
Length of Day
17h 24m
Last Quarter, 38% of the Moon is Illuminated
Jul 1
Last Quarter
Jul 8
New
Jul 16
First Quarter
Jul 22
Full
Jul 29
Last Quarter

Hourly Weather History & Observations

Time (CEST) Temp. Dew Point Humidity Pressure Visibility Wind Dir Wind Speed Gust Speed Precip Events Conditions
12:20 AM 53.6 °F 50.0 °F 88% 29.95 in - West 6.9 mph - N/A   Clear
12:50 AM 51.8 °F 50.0 °F 94% 29.92 in - WSW 5.8 mph - N/A   Clear
1:20 AM 51.8 °F 50.0 °F 94% 29.92 in - West 4.6 mph - N/A   Clear
1:50 AM 53.6 °F 51.8 °F 94% 29.92 in - West 5.8 mph - N/A   Clear
2:00 AM 52 °F 50 °F 91% 29.94 in 12 mi West 5.8 mph - -   Scattered Clouds
2:20 AM 53.6 °F 51.8 °F 94% 29.92 in - West 5.8 mph - N/A   Clear
2:50 AM 51.8 °F 51.8 °F 100% 29.92 in 6.2 mi West 5.8 mph - N/A   Mostly Cloudy
3:20 AM 51.8 °F 50.0 °F 94% 29.92 in 6.2 mi West 4.6 mph - N/A   Mostly Cloudy
3:50 AM 50.0 °F 48.2 °F 94% 29.92 in 6.2 mi SW 4.6 mph - N/A   Mostly Cloudy
4:20 AM 50.0 °F 50.0 °F 100% 29.89 in 5.0 mi WSW 4.6 mph - N/A Fog Patches of Fog
4:50 AM 51.8 °F 50.0 °F 94% 29.89 in 5.6 mi WSW 5.8 mph - N/A Fog Patches of Fog
4:59 AM 51.8 °F 51.8 °F 100% 29.89 in 6.2 mi West 6.9 mph - N/A   Scattered Clouds
5:00 AM 52 °F 51 °F 97% 29.91 in 6 mi West 6.9 mph - -   Partly Cloudy
5:20 AM 51.8 °F 50.0 °F 94% 29.89 in 6.2 mi WSW 4.6 mph - N/A   Mostly Cloudy
5:50 AM 53.6 °F 51.8 °F 94% 29.89 in 6.2 mi West 6.9 mph - N/A   Mostly Cloudy
6:20 AM 55.4 °F 53.6 °F 94% 29.89 in 6.2 mi West 5.8 mph - N/A   Mostly Cloudy
6:50 AM 57.2 °F 53.6 °F 88% 29.89 in 6.2 mi West 6.9 mph - N/A   Mostly Cloudy
7:20 AM 57.2 °F 55.4 °F 94% 29.89 in 6.2 mi West 8.1 mph - N/A   Mostly Cloudy
7:50 AM 57.2 °F 53.6 °F 88% 29.89 in 6.2 mi West 8.1 mph - N/A   Mostly Cloudy
8:00 AM 58 °F 54 °F 83% 29.90 in 12 mi West 6.9 mph - -   Mostly Cloudy
8:20 AM 59.0 °F 55.4 °F 88% 29.89 in 6.2 mi WSW 6.9 mph - N/A   Mostly Cloudy
8:50 AM 59.0 °F 55.4 °F 88% 29.89 in 6.2 mi SW 5.8 mph - N/A   Mostly Cloudy
9:20 AM 59.0 °F 53.6 °F 82% 29.89 in 6.2 mi SW 9.2 mph - N/A   Mostly Cloudy
9:50 AM 59.0 °F 53.6 °F 82% 29.89 in 6.2 mi SW 8.1 mph - N/A   Mostly Cloudy
10:20 AM 59.0 °F 53.6 °F 82% 29.89 in 6.2 mi SW 4.6 mph - N/A   Mostly Cloudy
10:50 AM 60.8 °F 53.6 °F 77% 29.92 in 6.2 mi SW 5.8 mph - N/A   Mostly Cloudy
11:00 AM 60 °F 53 °F 72% 29.92 in 12 mi SW 6.9 mph - -   Mostly Cloudy
11:20 AM 60.8 °F 53.6 °F 77% 29.92 in 6.2 mi SW 5.8 mph - N/A   Mostly Cloudy
11:50 AM 62.6 °F 53.6 °F 72% 29.89 in 6.2 mi SW 8.1 mph - N/A   Mostly Cloudy
12:20 PM 62.6 °F 50.0 °F 63% 29.89 in 6.2 mi SW 9.2 mph - N/A   Mostly Cloudy
12:50 PM 62.6 °F 53.6 °F 72% 29.89 in 6.2 mi SSW 9.2 mph - N/A   Mostly Cloudy
1:20 PM 62.6 °F 55.4 °F 77% 29.89 in 6.2 mi South 10.4 mph - N/A   Mostly Cloudy
1:50 PM 60.8 °F 55.4 °F 82% 29.89 in 6.2 mi South 9.2 mph - N/A   Mostly Cloudy
2:00 PM 61 °F 56 °F 80% 29.91 in 16 mi South 9.2 mph - -   Mostly Cloudy
2:20 PM 60.8 °F 55.4 °F 82% 29.89 in 6.2 mi South 11.5 mph - N/A   Mostly Cloudy
2:50 PM 62.6 °F 55.4 °F 77% 29.89 in 6.2 mi South 10.4 mph - N/A   Mostly Cloudy
3:20 PM 62.6 °F 55.4 °F 77% 29.89 in 6.2 mi South 12.7 mph - N/A   Mostly Cloudy
3:50 PM 62.6 °F 57.2 °F 82% 29.89 in 6.2 mi South 15.0 mph - N/A   Mostly Cloudy
4:20 PM 60.8 °F 57.2 °F 88% 29.89 in 6.2 mi SSW 12.7 mph - N/A   Mostly Cloudy
4:50 PM 62.6 °F 55.4 °F 77% 29.89 in 6.2 mi South 11.5 mph - N/A   Mostly Cloudy
5:00 PM 61 °F 56 °F 77% 29.90 in 12 mi South 12.7 mph - -   Overcast
5:20 PM 60.8 °F 57.2 °F 88% 29.89 in 6.2 mi South 13.8 mph - N/A   Mostly Cloudy
5:50 PM 60.8 °F 57.2 °F 88% 29.89 in 6.2 mi South 12.7 mph - N/A   Mostly Cloudy
6:20 PM 60.8 °F 57.2 °F 88% 29.89 in 6.2 mi South 8.1 mph - N/A Rain Light Rain
6:50 PM 62.6 °F 59.0 °F 88% 29.89 in 6.2 mi SSW 8.1 mph - N/A Rain Light Rain
7:20 PM 62.6 °F 57.2 °F 82% 29.89 in 6.2 mi WSW 10.4 mph - N/A   Mostly Cloudy
7:50 PM 62.6 °F 57.2 °F 82% 29.89 in 6.2 mi West 12.7 mph - N/A   Mostly Cloudy
8:00 PM 64 °F 56 °F 68% 29.90 in 9 mi West 12.7 mph - - Rain Light Rain
8:20 PM 62.6 °F 55.4 °F 77% 29.89 in 6.2 mi West 12.7 mph - N/A   Mostly Cloudy
8:50 PM 60.8 °F 53.6 °F 77% 29.89 in 6.2 mi WNW 16.1 mph - N/A   Mostly Cloudy
9:20 PM 59.0 °F 51.8 °F 77% 29.89 in 6.2 mi WNW 12.7 mph - N/A   Mostly Cloudy
9:50 PM 57.2 °F 51.8 °F 82% 29.92 in 6.2 mi WNW 11.5 mph - N/A   Mostly Cloudy
10:20 PM 55.4 °F 51.8 °F 88% 29.92 in 6.2 mi West 8.1 mph - N/A   Mostly Cloudy
10:50 PM 53.6 °F 48.2 °F 82% 29.92 in - West 6.9 mph - N/A   Clear
11:00 PM 54 °F 48 °F 74% 29.94 in 16 mi West 6.9 mph - -   Scattered Clouds
11:20 PM 53.6 °F 48.2 °F 82% 29.92 in - West 5.8 mph - N/A   Clear
11:50 PM 50.0 °F 46.4 °F 87% 29.95 in - WSW 4.6 mph - N/A   Clear